Weather History for Altus AFB, OK

Change the Weather History Date:

Monday, April 29, 2013

  Actual Average Record
Temperature  
Mean Temperature 72 °F -  
Max Temperature 92 °F 76 °F 92 °F (2013)
Min Temperature 53 °F 52 °F 42 °F (2008)
Cooling Degree Days 8    
Growing Degree Days 22 (Base 50)    
Moisture  
Dew Point 49 °F    
Average Humidity 52    
Maximum Humidity 100    
Minimum Humidity 13    
Precipitation  
Precipitation 0.00 in - - ()
Sea Level Pressure  
Sea Level Pressure 29.74 in    
Wind  
Wind Speed 12 mph (SSE)    
Max Wind Speed 25 mph    
Max Gust Speed 31 mph    
Visibility 10 miles    
Events      
Averages and records for this station are not official NWS values.
T = Trace of Precipitation, MM = Missing Value Source: NWS Daily Summary

Daily Weather History Graph

Daily Weather History Graph

Search for Another Location

Airport:

Trip Planner

Search our weather history database for the weather conditions in past years. The results will help you decide how hot, cold, wet, or windy it might be!

Date:

Astronomy

Apr. 29, 2013 Rise Set
Actual Time 6:48 AM CDT 8:20 PM CDT
Civil Twilight 6:21 AM CDT 8:47 PM CDT
Nautical Twilight 5:49 AM CDT 9:19 PM CDT
Astronomical Twilight 5:15 AM CDT 9:53 PM CDT
Moon No Moon Rise 10:15 AM CDT (4/29)
Length of Visible Light 14h 25m
Length of Day
13h 32m
Waning Gibbous, 80% of the Moon is Illuminated
Apr 29
Waning Gibbous
May 2
Last Quarter
May 9
New
May 17
First Quarter
May 24
Full

Hourly Weather History & Observations

Time (CDT) Temp. Dew Point Humidity Pressure Visibility Wind Dir Wind Speed Gust Speed Precip Events Conditions
12:58 AM 65.1 °F 62.2 °F 90% 29.80 in 10.0 mi ESE 9.2 mph - N/A   Clear
1:58 AM 64.4 °F 62.4 °F 93% 29.79 in 10.0 mi SE 8.1 mph - N/A   Clear
2:58 AM 61.9 °F 61.5 °F 99% 29.78 in 10.0 mi SE 8.1 mph - N/A   Clear
3:58 AM 59.7 °F 59.5 °F 99% 29.78 in 10.0 mi SE 4.6 mph - N/A   Clear
4:58 AM 55.4 °F 55.4 °F 100% 29.80 in 10.0 mi SE 4.6 mph - N/A   Clear
5:58 AM 54.5 °F 54.5 °F 100% 29.80 in 10.0 mi SE 4.6 mph - N/A   Clear
6:58 AM 53.1 °F 53.1 °F 100% 29.80 in 10.0 mi SSE 4.6 mph - N/A   Clear
7:58 AM 57.4 °F 57.0 °F 99% 29.81 in 10.0 mi SE 4.6 mph - N/A   Clear
8:58 AM 65.5 °F 53.8 °F 66% 29.82 in 10.0 mi South 9.2 mph - N/A   Clear
9:58 AM 72.9 °F 51.1 °F 46% 29.81 in 10.0 mi South 10.4 mph - N/A   Clear
10:58 AM 79.2 °F 49.8 °F 36% 29.80 in 10.0 mi WSW 10.4 mph - N/A   Clear
11:58 AM 86.0 °F 46.4 °F 25% 29.78 in 10.0 mi SSW 16.1 mph 23.0 mph N/A   Clear
12:58 PM 88.9 °F 43.9 °F 21% 29.75 in 10.0 mi South 17.3 mph 25.3 mph N/A   Clear
1:58 PM 91.2 °F 40.6 °F 17% 29.72 in 10.0 mi SSW 18.4 mph 29.9 mph N/A   Clear
2:58 PM 92.1 °F 38.5 °F 15% 29.70 in 10.0 mi South 25.3 mph 29.9 mph N/A   Clear
3:58 PM 92.1 °F 36.3 °F 14% 29.68 in 10.0 mi SSW 21.9 mph 28.8 mph N/A   Clear
4:58 PM 91.8 °F 34.9 °F 13% 29.66 in 10.0 mi South 25.3 mph 28.8 mph N/A   Clear
5:58 PM 90.9 °F 37.4 °F 15% 29.65 in 10.0 mi South 23.0 mph 31.1 mph N/A   Clear
6:58 PM 88.0 °F 38.7 °F 18% 29.65 in 10.0 mi SSE 20.7 mph 31.1 mph N/A   Clear
7:58 PM 83.1 °F 42.1 °F 23% 29.65 in 10.0 mi SSE 21.9 mph 31.1 mph N/A   Clear
8:58 PM 77.5 °F 41.5 °F 28% 29.66 in 10.0 mi SE 16.1 mph - N/A   Clear
9:55 PM 75.0 °F 49.1 °F 40% 29.66 in 10.0 mi SE 21.9 mph 29.9 mph N/A   Clear
10:55 PM 73.6 °F 50.2 °F 44% 29.68 in 10.0 mi SE 21.9 mph 28.8 mph N/A   Unknown
10:58 PM 73.6 °F 50.2 °F 44% 29.68 in 10.0 mi SE 21.9 mph 28.8 mph N/A   Clear
11:58 PM 72.1 °F 54.1 °F 53% 29.69 in 10.0 mi SSE 19.6 mph 26.5 mph N/A   Clear